CAPE
0 0 0 0 0 0 0 0 0 0 0 0 0 0 0 0 0 0 0 0 0 0 0 0 0 0 0 0 0 0 0 0 0 0 0 0 0 0 0 0 0 0 0 0 0 0 0 0 0 0 0 0 0 0
0 0 0 0 0 0 0 0 0 0 0 0 0 0 0 0 0 0 0 0 0 0 0 0 0 0 0 0 0 0 0 0 0 0 0 0 0 0 0 0 0 0 0 0 0 0 0 0 0 0 0 0 0 0
0 0 0 0 0 0 1 0 0 0 0 0 0 0 0 0 0 0 0 0 0 0 0 0 0 0 0 0 0 0 0 0 0 0 0 0 0 0 2 0 0 0 0 0 0 0 0 0 0 0 0 1 0 0
0 0 0 0 0 0 1 0 0 0 0 0 0 0 0 0 0 0 0 0 0 0 0 0 0 0 0 0 0 0 0 0 0 0 0 0 0 0 0 4 5 0 1 1 0 0 0 0 0 0 0 0 0 0
0 0 0 0 0 0 0 0 0 0 0 0 0 0 0 0 0 0 0 0 0 0 0 0 0 0 0 0 0 0 0 0 0 5 0 3 0 0 0 0 0 0 0 2 2 2 7 20 0 0 0 0 0 0
0 0 0 0 0 0 0 0 0 0 0 0 0 0 0 0 0 0 0 0 0 0 1 1 0 0 0 0 0 0 0 0 0 6 7 7 0 0 0 0 0 0 0 8 11 0 1 5 0 0 0 0 0 0
0 0 0 0 0 0 0 0 0 0 0 0 0 0 0 0 0 1 0 0 0 0 0 0 0 0 0 0 0 0 0 0 0 13 13 0 1 0 0 3 0 0 2 0 0 0 0 0 0 0 0 0 0 0
0 1 2 0 0 0 0 0 1 0 0 0 0 0 0 1 1 0 0 0 0 0 0 0 0 0 0 0 0 0 0 0 0 3 0 0 0 0 5 0 1 0 0 0 0 0 0 0 0 0 0 0 0 0
0 0 0 0 0 0 0 0 0 0 0 0 1 1 0 0 0 0 0 0 0 0 0 0 0 0 0 0 0 0 0 0 0 0 0 0 0 0 1 0 0 0 0 0 0 0 0 0 0 0 0 0 0 0
0 0 0 0 0 0 0 0 0 0 0 0 0 0 0 0 0 0 0 0 0 0 0 0 0 0 0 0 0 0 0 0 0 0 0 0 0 0 0 0 0 0 0 0 0 0 0 0 0 0 0 0 0 0
0 0 0 0 0 0 0 0 0 1 0 0 0 0 0 1 0 0 1 2 1 0 0 0 0 0 1 0 0 0 0 0 0 0 0 0 0 0 0 0 0 0 0 0 0 0 0 0 0 0 0 0 0 0
0 0 0 0 0 0 0 0 0 0 0 1 0 0 0 0 0 0 0 0 0 0 0 0 0 0 0 0 0 0 0 0 0 0 0 0 0 0 0 0 0 0 0 0 0 0 0 0 0 0 0 0 0 0
0 0 0 0 0 0 0 0 0 0 0 0 0 0 0 0 0 0 0 0 0 0 0 0 0 0 0 0 0 0 0 0 0 0 0 0 0 0 0 0 0 0 0 0 0 0 0 0 0 0 0 0 0 0
0 0 0 0 0 0 0 0 0 0 0 0 0 0 0 0 0 0 0 0 0 0 0 0 0 0 0 0 0 0 0 0 0 0 0 0 0 0 0 0 0 0 0 0 0 0 0 0 0 0 0 0 0 0
0 0 0 0 0 0 0 0 0 0 0 0 0 0 0 0 0 0 0 0 0 0 0 0 0 0 0 0 0 0 0 0 0 0 0 0 0 0 0 0 0 0 0 0 0 0 0 0 0 0 0 0 0 0
12 1 0 0 0 0 0 0 0 0 0 0 0 0 0 0 0 0 0 0 0 0 0 0 0 0 0 0 0 0 0 0 0 0 0 0 0 0 0 0 0 0 0 0 0 0 0 0 0 0 0 0 0 0
12 1 0 0 0 0 0 0 0 0 0 0 0 0 0 0 0 0 0 0 0 0 0 0 0 0 0 0 0 0 0 0 0 0 0 0 0 0 0 0 0 0 0 0 0 0 0 0 0 0 0 0 0 0
0 1 0 0 0 0 0 0 0 0 0 0 0 0 0 0 0 0 0 0 0 0 0 0 0 0 0 0 0 0 0 0 0 0 0 0 0 0 0 0 0 0 0 0 0 0 0 0 0 0 0 0 0 0
0 0 0 0 0 0 0 0 0 0 0 0 0 0 0 0 0 0 0 0 0 0 0 0 0 0 0 0 0 0 0 0 0 0 0 0 0 0 0 0 0 0 0 0 0 0 0 0 0 0 0 0 0 0
0 0 0 0 0 0 0 0 0 0 0 0 0 0 0 0 0 0 0 0 0 5 9 0 0 0 0 0 0 0 0 0 0 0 0 0 0 0 0 0 0 0 0 0 0 0 0 0 0 0 0 0 1 1
0 0 0 0 0 0 0 0 0 0 0 0 0 0 0 0 0 0 0 0 0 1 0 0 0 0 0 0 0 0 0 0 0 0 0 0 0 0 0 0 0 0 0 0 0 0 1 0 0 0 1 1 0 1
0 0 0 0 0 0 0 0 0 0 0 0 0 0 0 0 0 0 0 0 0 0 0 0 0 0 0 0 0 0 0 0 0 0 0 0 0 0 0 0 0 0 0 0 0 0 0 0 0 0 1 1 1 0
0 0 0 0 0 0 0 0 0 0 0 0 0 0 0 0 0 0 0 0 0 0 0 0 0 0 0 0 0 0 0 0 0 0 0 0 0 0 0 0 0 0 0 0 0 0 0 0 0 1 2 0 0 0
0 0 0 0 0 0 0 0 0 0 0 0 0 0 0 0 0 0 0 0 0 0 0 0 0 0 0 0 0 0 0 0 0 0 0 0 0 0 0 0 0 0 0 0 0 0 0 0 2 1 1 0 0 0
0 0 0 0 0 0 0 0 0 0 0 0 0 0 0 0 0 0 0 0 0 0 0 0 0 0 0 0 0 0 0 0 0 0 0 0 0 0 0 0 0 0 0 0 0 0 0 1 2 0 1 0 0 0
0 0 0 0 0 0 0 0 0 0 0 0 0 0 0 0 0 0 0 0 0 0 0 0 0 0 0 0 0 0 0 0 0 0 0 0 0 0 0 0 0 0 0 0 0 0 1 1 1 1 0 0 0 0
0 0 1 0 0 0 0 0 0 0 0 0 0 0 0 0 0 0 0 0 0 0 0 0 0 0 0 0 0 0 0 0 0 0 0 0 0 0 0 0 0 0 0 0 0 0 0 0 0 0 1 1 0 0
0 0 0 0 0 0 0 0 0 0 0 0 0 0 0 0 0 0 0 0 0 0 0 0 0 0 0 0 0 0 0 0 0 0 0 0 0 0 0 0 0 0 0 0 0 0 0 0 1 0 0 1 1 0
0 0 0 0 0 0 0 0 0 0 0 0 0 0 0 0 0 0 0 0 0 0 0 0 0 0 0 0 0 0 0 0 0 0 0 0 0 0 0 0 0 0 0 0 0 0 0 0 0 0 0 0 0 1
0 0 0 0 0 0 0 0 0 0 0 0 0 0 0 0 0 0 0 0 0 0 0 0 0 0 0 0 0 0 0 0 0 0 0 0 0 0 0 0 0 0 0 0 0 0 0 0 0 0 0 0 0 0
0 0 0 0 0 0 0 0 0 0 0 0 0 0 0 0 0 0 0 0 0 0 0 0 0 0 0 0 0 0 0 0 0 0 0 0 0 0 0 0 0 0 0 0 1 2 0 0 0 0 0 0 0 0
0 0 0 0 0 0 0 0 0 0 0 0 0 0 0 0 0 0 0 0 0 0 0 0 0 0 0 0 0 0 0 0 0 0 0 0 0 0 0 0 0 0 0 0 0 0 0 0 0 0 0 0 0 0
0 0 0 0 0 0 0 0 0 0 0 0 0 0 0 0 0 0 0 0 0 0 0 0 0 0 0 0 0 0 0 0 0 0 0 0 0 0 0 0 0 0 0 0 0 0 0 0 0 0 0 0 0 0
CIN
0 0 0 0 0 -6 0 0 0 0 0 0 0 0 0 0 0 0 0 0 0 0 0 0 0 0 0 0 0 0 0 0 0 0 0 0 0 0 0 0 0 0 0 0 0 0 0 0 0 0 -1 0 0 0
0 0 0 0 0 -22 0 0 0 0 0 0 0 0 0 0 0 0 0 0 0 0 0 0 0 0 0 0 0 0 0 0 0 0 0 0 0 0 0 -2 0 0 0 0 0 0 0 0 0 0 0 -4 0 0
0 0 0 0 0 -28 -42 0 0 0 0 0 0 0 0 0 0 0 0 0 0 0 0 0 0 0 0 0 0 0 0 0 0 0 0 0 0 0 -3 0 0 0 0 0 0 0 0 0 0 0 0 -27 0 0
0 0 0 0 0 0 -33 0 0 0 0 0 0 0 0 0 0 0 0 0 0 0 0 0 0 0 0 0 0 0 0 0 0 0 0 0 0 0 -2 -8 -8 0 -1 -7 0 0 0 0 0 0 0 0 0 0
0 0 0 0 0 0 -10 -16 0 0 0 0 0 0 0 0 0 0 0 0 0 0 0 0 0 0 0 0 0 0 0 0 0 -17 0 -3 -22 -2 0 0 0 0 0 -4 -2 -5 -2 -1 0 0 0 0 0 0
0 0 0 0 0 0 0 0 0 0 0 0 0 0 0 0 0 0 0 0 0 0 -41 -9 0 0 0 0 0 0 0 0 0 -11 -12 -25 -2 -1 0 0 0 0 -12 -34 -10 -1 -15 -43 -2 0 0 0 0 0
0 0 0 0 0 0 0 0 0 0 0 0 0 0 0 0 0 -3 0 0 0 0 0 0 0 0 0 0 0 0 0 0 0 -3 -7 -3 -3 -1 0 -3 0 -5 -12 0 0 0 0 0 0 0 0 0 0 0
0 -38 -32 0 0 0 0 0 0 0 0 0 0 0 0 0 0 0 0 0 0 0 0 0 0 0 0 0 0 0 0 0 0 -3 0 -3 0 -2 -1 0 -41 0 0 0 0 0 0 0 0 0 0 0 0 0
0 0 -21 0 0 0 0 0 0 0 0 0 0 0 0 0 0 0 0 0 0 0 0 0 -1 -1 0 0 0 0 0 0 0 0 0 0 0 0 -8 -2 0 0 0 0 0 0 0 0 0 0 0 0 0 0
0 0 0 0 0 0 0 -1 0 0 0 0 0 0 0 0 0 0 0 0 0 0 0 0 0 0 0 0 0 0 0 0 0 0 0 0 0 0 0 0 0 0 0 0 0 0 0 0 0 0 0 0 0 0
0 0 0 0 0 0 0 0 -28 -17 0 0 0 0 0 0 0 0 0 0 0 0 0 0 0 0 0 0 0 0 0 0 0 0 0 0 0 0 0 0 0 0 0 0 0 0 0 0 0 0 0 0 0 0
0 0 0 0 -2 0 0 0 0 0 0 -24 -12 0 0 0 0 0 0 0 0 0 0 0 0 0 0 0 0 0 0 0 0 0 0 0 0 0 0 0 0 0 0 0 0 0 0 0 0 0 0 0 0 0
0 0 0 0 0 0 0 0 0 0 0 0 0 0 0 0 0 -1 0 0 0 0 0 0 0 0 0 0 0 0 0 0 0 0 0 0 0 0 0 0 0 0 0 0 0 0 0 0 0 0 0 0 0 0
0 0 0 0 0 0 0 0 0 0 0 0 0 -7 0 0 0 0 0 0 0 0 0 0 0 0 0 0 0 0 0 0 0 0 0 0 0 0 0 0 0 0 0 0 0 0 0 0 0 0 0 0 0 0
0 0 0 0 0 0 0 0 0 0 0 0 0 -33 0 0 0 0 0 0 0 0 0 0 0 0 0 0 0 0 0 0 0 0 0 0 0 0 0 0 0 0 0 0 0 0 0 0 0 0 0 0 0 0
0 -2 0 0 0 0 0 0 0 0 0 0 0 0 0 0 0 0 0 0 0 0 0 0 0 0 0 0 0 0 0 0 0 0 0 0 0 0 0 0 0 0 0 0 0 0 0 0 0 0 0 0 0 0
-3 -24 -3 0 0 0 0 0 0 0 0 0 0 0 0 0 0 0 0 0 0 0 0 0 0 0 0 0 0 0 0 0 0 0 0 0 0 0 0 0 0 0 0 0 0 0 0 0 0 0 0 0 0 0
-1 0 0 0 0 0 0 0 0 0 0 0 0 0 0 0 0 0 0 0 -1 0 0 0 0 0 0 0 0 0 0 0 0 0 0 0 0 0 0 0 0 0 0 0 0 0 0 0 0 0 0 0 0 0
-1 0 0 0 0 0 0 0 0 0 0 0 0 0 0 0 0 0 0 0 0 0 0 0 0 0 0 0 0 0 0 0 0 0 0 0 0 0 0 0 0 0 0 0 0 0 0 0 0 0 0 0 0 0
-3 0 0 0 0 0 0 0 0 0 0 0 0 0 0 0 0 0 0 0 0 -5 -4 -6 0 0 0 0 0 0 0 0 0 0 0 0 0 0 0 0 0 0 0 0 0 0 0 0 0 0 0 0 0 0
0 0 0 0 0 0 0 0 0 0 0 0 0 0 0 0 0 0 0 0 0 -3 0 0 0 0 0 0 0 0 0 0 0 0 0 0 0 0 0 0 0 0 0 0 0 0 0 0 0 0 -1 0 0 0
0 0 0 0 0 0 0 0 0 0 0 0 0 0 0 0 0 0 0 0 0 0 0 0 0 0 0 0 0 0 0 0 0 0 0 0 0 0 0 0 0 0 0 0 0 0 -1 0 0 0 0 0 0 0
0 0 0 0 0 0 0 0 0 0 0 0 0 0 0 0 0 0 0 0 0 0 0 0 0 0 0 0 0 0 0 0 0 0 0 0 0 0 0 0 0 0 0 0 0 0 -1 0 0 0 0 0 0 0
0 0 0 0 0 0 0 0 0 0 0 0 0 0 0 0 0 0 0 0 0 0 0 0 0 0 0 0 0 0 0 0 0 0 0 0 0 0 0 0 0 0 0 0 0 -2 0 0 -2 0 0 -4 0 0
0 0 0 0 0 0 0 0 0 0 0 0 0 0 0 0 0 0 0 0 0 0 0 0 0 0 0 0 0 0 0 0 0 0 0 0 0 0 0 0 0 0 0 0 0 0 -1 -2 -1 0 0 0 0 0
0 0 0 0 -1 0 0 0 0 0 0 0 0 0 0 0 0 0 0 0 0 0 0 0 0 0 0 0 0 0 0 0 0 0 0 0 0 0 0 0 0 0 0 0 0 0 0 -1 0 0 0 0 0 0
0 0 0 0 0 0 0 0 0 0 0 0 0 0 0 0 0 0 0 0 0 0 0 0 0 0 0 0 0 0 0 0 0 0 0 0 0 0 0 0 0 0 0 0 0 0 0 0 0 0 0 0 0 0
0 0 0 0 0 0 0 0 0 0 0 0 0 0 0 0 0 0 0 0 0 0 0 0 0 0 0 0 0 0 0 0 0 0 0 0 0 0 0 0 0 0 0 0 0 0 -1 0 0 0 0 0 0 0
0 0 0 0 0 0 0 0 0 0 0 0 0 0 0 0 0 0 0 0 0 0 0 0 0 0 0 0 0 0 0 0 0 0 0 0 0 0 0 0 0 0 0 0 0 0 0 0 0 0 0 0 0 0
0 0 0 0 0 0 0 0 0 0 0 0 0 0 0 0 0 0 0 0 0 0 0 0 0 0 0 0 0 0 0 0 0 0 0 0 0 0 0 0 0 0 0 0 0 0 0 0 0 0 0 0 0 0
0 0 0 0 0 0 0 0 0 0 0 0 0 0 0 0 0 0 0 0 0 0 0 0 0 0 0 0 0 0 0 0 0 0 0 0 0 0 0 0 0 0 0 0 0 0 0 0 0 0 0 0 0 0
0 0 0 0 0 0 0 0 0 0 0 0 0 0 0 0 0 0 0 0 0 0 0 0 0 0 0 0 0 0 0 0 0 0 0 0 0 0 0 0 0 0 0 0 0 0 0 0 0 0 0 0 0 0
0 0 0 0 0 0 0 0 0 0 0 0 0 0 0 0 0 0 0 0 0 0 0 0 0 0 0 0 0 0 0 0 0 0 0 0 0 0 0 0 0 0 0 0 0 0 0 0 0 0 0 0 0 0
Wind_Speed
29 31 35 36 34 31 30 29 27 25 23 21 20 20 19 18 17 16 15 17 16 16 15 14 13 13 13 13 15 15 18 20 21 24 25 26 27 25 27 25 27 28 29 28 27 28 35 22 26 37 38 38 40 45
27 28 33 37 37 34 31 30 28 26 25 23 21 20 19 19 18 17 17 17 17 17 16 16 16 15 15 13 14 15 18 19 17 22 23 25 28 28 29 34 22 25 18 27 21 25 28 27 36 36 38 41 39 37
24 27 30 36 36 35 33 31 29 27 25 24 22 20 19 18 18 17 16 17 17 18 20 19 18 18 17 16 15 19 21 19 21 21 23 24 30 27 32 30 25 23 22 28 33 29 30 32 34 35 35 36 34 32
19 25 27 31 38 33 32 31 30 28 25 23 21 20 19 18 18 17 18 17 16 18 23 22 20 20 19 18 18 19 22 20 21 21 24 26 30 23 29 26 26 22 29 30 32 34 34 31 31 32 33 33 34 31
19 20 23 26 32 32 33 31 30 27 26 23 22 21 19 18 18 17 18 18 17 20 23 23 24 22 21 21 22 21 21 22 24 26 26 29 27 27 24 25 29 26 28 34 38 34 34 37 32 32 34 33 33 33
19 20 21 22 25 32 35 33 30 27 26 24 23 21 20 18 17 20 26 23 19 18 24 30 24 22 20 21 23 24 25 24 23 26 29 27 21 22 28 29 25 26 28 27 32 34 34 31 30 29 30 31 33 36
20 20 20 21 22 26 31 32 27 25 25 23 23 22 20 18 19 22 23 20 14 16 24 30 30 25 23 24 26 26 24 24 23 26 23 24 25 21 26 32 34 33 27 31 30 32 33 29 30 29 31 33 36 38
19 18 18 19 20 20 21 22 25 22 17 23 22 19 19 17 18 24 20 16 13 18 22 28 30 28 23 26 26 24 22 22 22 23 23 25 24 22 29 30 30 29 31 31 31 28 26 24 27 31 34 38 41 43
18 16 15 17 18 19 19 19 18 18 18 17 17 13 18 22 25 24 17 16 18 21 27 28 29 31 22 21 22 22 23 25 24 25 24 23 24 28 30 32 36 36 32 28 25 25 27 29 33 37 39 40 43 45
18 15 15 16 17 18 19 18 16 15 13 11 16 20 22 21 15 15 19 21 22 22 23 28 21 24 22 21 24 25 26 26 28 26 25 25 29 26 30 32 29 27 24 23 27 30 32 37 39 41 40 37 39 43
19 16 13 12 13 14 15 13 12 9 11 16 19 19 14 12 17 18 21 21 22 25 24 23 23 26 25 28 26 24 26 25 32 28 28 31 31 28 27 24 23 23 24 25 27 29 32 36 41 42 43 41 43 45
18 16 14 12 11 11 10 9 10 13 16 15 11 11 14 18 20 22 23 22 22 26 22 22 23 22 23 22 24 25 28 25 31 26 28 33 29 26 24 23 23 25 27 30 32 36 38 39 40 41 43 44 44 43
18 15 13 12 11 10 11 12 14 6 10 14 17 20 22 23 28 28 30 27 27 24 23 23 24 22 22 21 23 23 27 29 26 30 33 31 24 24 24 25 27 28 32 35 38 39 39 41 42 43 44 42 41 42
20 18 14 11 9 8 4 4 9 12 13 18 21 26 27 27 28 28 29 26 24 23 20 19 21 22 22 23 23 27 25 25 30 34 36 27 23 24 26 27 30 35 37 39 40 41 42 42 44 43 41 40 41 42
20 18 16 14 11 8 7 8 10 12 15 19 19 26 27 23 22 21 20 20 20 17 18 20 21 21 22 25 24 25 28 31 30 33 29 23 24 26 28 33 36 38 40 41 39 41 42 42 43 43 42 41 40 38
17 15 20 15 13 11 11 12 13 14 16 18 20 22 21 22 22 21 21 21 17 14 16 19 22 25 26 25 27 29 29 33 31 26 23 25 27 28 33 36 38 39 39 38 39 40 40 41 42 42 42 41 40 38
16 19 13 10 8 9 12 15 15 16 19 20 21 20 20 21 21 20 19 19 13 18 24 22 26 26 22 26 29 23 29 27 22 24 27 27 30 36 38 39 38 37 37 37 39 38 38 38 38 40 42 40 37 34
19 9 9 8 8 10 15 17 18 18 21 21 23 21 20 20 20 19 19 16 17 19 19 24 20 25 28 30 30 25 23 24 26 30 29 32 35 37 36 37 35 35 36 37 36 36 36 38 39 39 39 37 37 34
9 9 7 7 9 13 17 18 19 22 22 20 20 19 19 20 19 20 17 17 17 17 18 21 25 27 27 25 26 26 27 29 35 36 36 35 34 34 34 33 34 35 35 34 34 36 36 35 33 34 35 35 35 34
7 6 5 6 10 14 17 19 18 20 23 22 21 21 21 22 21 20 19 19 19 21 23 25 26 25 26 27 27 32 33 32 35 40 40 37 32 32 34 34 33 31 32 31 33 35 37 36 31 30 33 33 35 32
4 7 6 9 13 14 16 18 18 19 19 21 20 19 21 20 22 22 22 19 21 23 27 26 29 30 29 30 30 32 33 32 34 34 37 40 35 31 33 30 29 29 29 31 34 36 35 34 30 30 33 35 37 33
7 4 9 13 16 17 18 18 18 17 18 19 18 19 22 23 23 21 18 21 24 25 27 29 30 31 32 33 33 30 32 33 32 32 31 31 34 32 30 29 29 29 28 31 32 33 34 34 29 27 29 33 35 33
5 10 12 15 16 17 19 16 19 18 20 20 20 21 22 22 21 18 24 23 24 24 25 27 28 27 31 32 33 33 31 32 33 31 30 28 26 26 26 27 26 28 33 33 29 31 33 33 28 26 28 30 31 29
8 10 12 13 15 15 16 17 18 19 20 21 22 23 23 22 19 23 27 26 24 25 27 28 29 31 31 30 30 30 30 27 29 28 26 27 26 25 23 26 26 26 28 30 31 31 31 32 27 28 28 26 27 26
12 15 15 17 15 17 18 19 19 19 22 19 20 22 21 19 23 25 27 26 23 25 27 29 28 28 28 27 25 27 27 28 31 32 30 22 22 26 29 28 29 30 28 30 30 30 30 29 30 27 27 24 23 24
14 14 14 12 13 15 14 18 17 17 16 17 18 19 19 21 25 27 24 22 23 24 27 30 30 28 24 23 29 34 36 32 30 32 31 28 25 25 29 33 34 34 27 25 28 29 30 30 31 28 26 25 21 20
14 13 13 14 12 11 12 13 12 13 15 18 18 18 19 24 26 24 22 20 23 27 29 28 27 25 28 32 32 32 33 31 29 28 28 28 24 22 24 26 30 29 26 26 27 28 29 30 30 30 29 28 25 22
15 11 11 10 11 13 14 15 16 17 18 17 18 20 23 23 26 24 26 29 32 35 34 32 28 28 30 33 34 33 34 31 28 25 24 25 25 25 24 24 24 25 26 27 29 28 27 30 33 33 33 32 31 28
15 13 12 14 15 15 14 15 17 17 19 18 24 27 28 28 31 35 38 38 38 36 35 35 34 34 35 35 34 31 29 27 26 28 29 30 29 24 26 28 29 30 30 29 28 28 29 31 32 31 31 32 33 33
17 14 14 14 13 13 18 16 22 23 22 23 27 31 33 33 33 34 36 36 36 35 33 32 32 33 33 32 32 29 27 26 25 24 26 27 26 27 28 29 30 30 29 29 29 29 30 30 30 30 32 33 33 32
18 15 18 18 21 23 23 25 26 28 28 29 27 28 31 32 28 31 34 34 33 32 33 33 32 31 31 30 29 28 26 26 25 24 24 25 25 25 26 28 29 29 29 29 30 30 31 31 31 32 32 31 30 29
19 18 21 25 26 24 27 29 28 25 27 25 24 26 27 26 24 27 33 35 34 35 34 33 31 31 30 29 23 22 23 24 25 25 25 24 24 25 27 28 29 29 29 29 30 30 31 30 30 30 29 29 28 27
21 23 24 30 31 27 24 26 26 27 25 25 24 23 21 20 19 22 23 28 28 30 32 31 28 25 22 21 22 23 24 24 24 25 25 25 25 27 29 30 30 30 30 30 30 29 28 28 28 28 27 27 26 26
Wind_Direction
253 248 242 239 239 241 243 245 249 254 258 263 270 274 279 283 287 285 285 293 291 293 299 300 306 310 317 319 318 330 331 331 330 327 328 330 329 331 332 333 333 330 328 326 328 324 326 344 338 330 327 327 328 329
255 254 245 239 239 240 242 244 248 252 255 260 265 272 277 281 284 284 281 290 295 293 301 300 303 310 313 319 320 324 327 334 334 331 330 332 327 329 327 324 335 325 327 327 324 321 325 326 324 327 329 327 330 333
262 258 253 239 238 239 241 243 247 250 254 258 262 268 274 280 285 286 284 289 294 293 295 296 297 305 310 313 319 315 319 322 323 327 326 327 322 327 321 321 325 331 329 320 318 323 323 325 326 330 336 336 338 340
276 261 255 245 238 240 240 242 245 249 253 257 261 265 270 276 282 285 284 289 294 295 289 294 305 302 306 308 310 316 316 323 323 322 317 320 321 326 319 319 318 327 329 324 319 322 324 325 333 334 334 336 335 336
277 272 262 254 243 239 238 240 243 247 251 256 258 263 267 273 281 287 287 289 293 287 291 296 301 302 304 305 306 314 314 312 312 311 311 313 320 319 318 319 316 324 322 321 318 325 326 325 330 332 333 334 336 335
279 273 269 263 256 243 239 240 243 246 251 254 257 261 265 270 278 283 281 282 286 295 292 289 301 301 305 307 309 309 310 308 307 309 311 316 315 316 317 318 327 326 322 322 322 326 328 330 333 338 338 339 337 336
273 269 269 267 264 251 242 240 242 246 248 252 256 258 262 265 271 274 281 294 286 295 292 293 296 301 302 305 307 307 309 308 307 310 311 310 309 312 313 311 322 322 326 327 330 330 330 333 333 338 336 336 337 336
272 275 274 264 264 260 253 244 242 240 242 247 252 257 261 266 274 274 283 297 293 296 295 293 296 299 309 305 305 314 315 316 314 313 316 315 318 316 314 321 327 330 327 328 332 336 337 340 338 337 336 333 332 332
268 274 270 266 267 263 256 253 249 241 241 244 246 246 270 271 270 277 286 285 291 287 288 290 291 296 310 307 312 314 316 312 316 310 312 317 314 312 319 321 322 324 324 328 337 340 339 338 335 333 333 332 330 330
263 269 274 271 266 264 259 252 250 252 240 209 256 265 264 270 282 289 288 285 283 287 286 286 291 294 303 308 309 313 316 312 310 312 318 312 311 316 324 326 331 337 340 340 334 334 334 331 329 329 330 332 332 331
256 263 275 279 272 272 264 247 234 220 239 261 259 266 279 283 285 286 281 281 283 283 288 288 289 294 302 301 301 309 311 315 309 312 311 312 314 321 332 337 343 346 345 343 340 336 333 332 330 329 329 329 330 330
251 256 262 271 277 277 269 238 227 255 262 262 267 277 278 284 281 277 276 283 283 285 292 295 299 302 307 310 305 309 306 311 307 318 313 311 318 327 331 336 338 339 340 339 338 334 332 331 331 329 328 327 328 329
245 251 257 259 265 272 270 252 260 238 261 271 275 271 272 274 269 270 270 278 283 288 292 297 299 304 307 310 310 309 306 305 314 308 308 313 322 328 332 335 336 338 336 333 331 331 332 331 331 330 329 330 331 331
237 239 247 255 256 264 255 260 267 274 274 270 267 262 267 270 273 273 277 284 290 293 293 298 301 305 309 308 309 306 311 314 308 307 308 316 323 328 331 333 333 329 330 329 329 330 330 330 330 331 332 333 333 332
230 232 238 245 245 255 254 278 287 287 281 274 275 268 269 278 284 288 291 292 298 298 296 300 304 305 306 304 309 309 310 307 308 310 315 322 326 327 328 328 327 327 327 328 329 330 330 331 332 332 333 334 334 334
223 228 240 239 243 253 258 270 287 288 280 282 280 278 283 280 283 286 290 291 303 302 308 308 304 304 300 304 303 303 306 306 314 317 324 325 325 325 324 325 326 326 327 328 329 331 331 333 332 333 334 335 336 336
214 242 225 232 247 267 275 270 279 281 278 280 282 286 286 291 287 289 294 294 304 297 294 303 299 299 309 305 304 308 307 314 319 322 323 324 323 322 322 323 325 327 328 329 330 331 332 334 336 336 337 339 341 342
233 215 203 223 246 272 280 281 275 279 277 281 282 286 288 294 295 295 296 302 300 299 300 300 309 299 300 301 304 310 313 317 317 319 320 321 321 322 324 324 326 327 328 329 331 333 334 334 336 337 339 341 340 341
207 192 193 241 264 275 275 280 285 277 281 286 288 293 293 295 299 304 301 299 302 306 302 305 302 301 301 303 307 312 316 316 315 316 317 321 323 324 325 326 327 327 329 331 333 334 335 335 335 338 340 341 339 340
177 184 227 272 286 287 283 285 290 285 282 286 289 287 290 294 298 298 298 299 297 298 297 299 297 302 304 307 310 311 313 315 316 315 316 320 325 325 325 326 327 330 331 333 335 337 337 337 339 342 342 341 339 343
209 252 276 280 287 294 291 291 290 292 292 289 293 292 294 298 295 295 296 299 296 298 297 299 301 302 305 307 310 312 313 314 314 315 316 317 322 325 325 328 330 332 332 334 335 338 341 341 341 343 343 338 337 341
260 283 283 295 294 295 293 298 293 296 295 298 299 300 296 296 296 300 304 299 300 301 301 303 305 307 307 309 312 315 315 316 316 316 316 317 318 322 325 328 331 331 333 333 334 336 339 341 344 347 347 341 338 343
293 303 306 304 299 298 294 301 291 296 291 294 300 297 298 300 305 311 302 305 308 311 310 310 310 312 309 312 314 315 318 317 317 318 319 319 320 322 324 328 333 332 331 333 336 336 336 340 344 347 347 346 343 343
302 312 308 304 300 294 295 291 294 294 295 296 298 297 300 303 312 305 303 307 314 316 316 315 314 313 315 316 317 320 322 325 323 324 324 321 321 323 327 329 331 333 334 334 334 335 336 337 342 342 345 345 345 344
278 279 290 285 297 294 292 293 293 295 295 300 301 303 306 312 307 306 307 313 320 321 322 323 321 319 317 320 325 327 331 330 325 322 326 327 323 322 321 325 328 330 334 333 334 334 336 338 338 340 341 343 342 342
284 295 303 313 310 304 304 300 300 300 306 307 308 313 316 311 307 307 316 323 325 327 328 327 325 323 322 321 320 319 319 324 322 319 320 321 318 317 318 321 324 329 333 334 334 336 336 337 337 338 338 340 340 338
303 311 312 313 320 323 322 321 328 325 316 311 320 320 318 310 310 319 325 328 327 327 327 326 323 319 318 318 318 320 321 321 320 320 324 327 329 327 325 325 328 334 337 336 337 338 337 338 338 339 338 337 336 334
310 321 319 322 317 313 316 318 316 314 316 320 322 314 313 313 315 322 320 321 321 319 318 318 318 317 316 315 316 318 318 321 322 324 328 330 331 330 331 332 334 335 334 334 334 339 341 340 337 337 336 336 335 334
311 318 319 313 312 314 313 313 315 318 319 315 311 309 310 312 315 313 313 315 317 317 316 316 316 315 313 312 314 317 318 319 321 320 321 322 327 333 331 329 327 328 328 332 337 339 339 340 340 342 342 341 340 338
307 307 318 318 315 312 313 312 313 314 315 313 313 312 311 313 316 319 318 318 318 318 320 321 321 318 316 315 315 319 322 323 322 323 323 325 328 328 328 327 328 329 331 333 335 337 338 341 342 343 341 341 342 343
311 314 315 314 312 313 312 313 314 314 314 313 314 312 312 315 318 324 324 321 320 320 320 320 320 319 317 316 316 318 322 325 329 330 330 332 333 333 332 331 332 333 334 336 336 336 336 338 338 338 339 341 342 343
316 315 314 312 313 318 317 315 317 320 322 322 321 322 323 324 326 330 329 321 315 313 314 317 318 316 313 313 323 327 329 329 330 332 333 335 337 338 336 335 335 336 337 337 337 337 337 338 339 340 342 343 344 344
317 315 314 307 309 317 324 323 326 326 331 334 337 341 345 348 354 0 2 350 337 322 314 313 317 323 330 334 333 332 332 332 334 336 336 337 337 337 336 336 337 338 339 339 339 341 343 344 345 346 347 348 349 349